Location: Peterborough
(44.3091°N, 78.3197°W)
Time: 17:18:47
(UTC-04:00)

Transit 2A - Pass Details

Date: 26 March 2023
Orbit: 591 x 964 km, 66.7° (Epoch: 04 June)

Event Time Altitude Azimuth Distance (km) Brightness Sun altitude
Rises 13:53:36 0° 330° (NNW) 3,626 9.2 47.3°
Reaches altitude 10° 13:56:16 10° 337° (NNW) 2,698 8.6 47.2°
Maximum altitude 14:02:25 47° 50° (NE) 1,253 7.3 46.9°
Drops below altitude 10° 14:08:27 10° 124° (ESE) 2,655 9.1 46.6°
Sets 14:11:03 0° 130° (SE) 3,564 9.6 46.5°
